PRIVATE WETTERSTATION BILLIGHEIM-ALLFELD                       ZURCK
Wetterdaten: Montag, 17.01.2022
Datum Zeit Temp. A. Temp. A. min Temp. A. max Feuchte A. Luftdruck Regen Wind Richtung Richtung Sonnenschein ET Solar Taupunkt Windchill Windben Empfang
17.01.2022 00:00 1,2 C 1,2 C 1,2 C 93 % 1031,2 hPa 0,0 l/m 6,4 km/h (2 Bft) W-SW 247 0 min 0,000 mm 0 W/m 0,2 C 1,2 C 20,9 km/h (4 Bft) 100 %
17.01.2022 00:10 1,2 C 1,2 C 1,2 C 93 % 1031,3 hPa 0,0 l/m 11,3 km/h (2 Bft) W-SW 247 0 min 0,000 mm 0 W/m 0,2 C -3,1 C 29,0 km/h (5 Bft) 80 %
17.01.2022 00:20 1,2 C 1,2 C 1,2 C 93 % 1031,3 hPa 0,0 l/m 12,9 km/h (3 Bft) W 270 0 min 0,000 mm 0 W/m 0,2 C -4,2 C 30,6 km/h (5 Bft) 100 %
17.01.2022 00:30 1,3 C 1,2 C 1,3 C 93 % 1031,5 hPa 0,0 l/m 8,0 km/h (2 Bft) W 270 0 min 0,000 mm 0 W/m 0,3 C -0,3 C 25,7 km/h (4 Bft) 99 %
17.01.2022 00:40 1,2 C 1,2 C 1,2 C 93 % 1031,6 hPa 0,0 l/m 8,0 km/h (2 Bft) W 270 0 min 0,000 mm 0 W/m 0,2 C -0,4 C 29,0 km/h (5 Bft) 100 %
17.01.2022 00:50 1,2 C 1,2 C 1,2 C 93 % 1031,5 hPa 0,0 l/m 4,8 km/h (1 Bft) W-SW 247 0 min 0,000 mm 0 W/m 0,2 C 1,2 C 22,5 km/h (4 Bft) 98 %
17.01.2022 01:00 1,2 C 1,2 C 1,2 C 93 % 1031,5 hPa 0,0 l/m 8,0 km/h (2 Bft) W 270 0 min 0,000 mm 0 W/m 0,2 C -0,4 C 22,5 km/h (4 Bft) 100 %
17.01.2022 01:10 1,2 C 1,2 C 1,2 C 93 % 1031,6 hPa 0,0 l/m 4,8 km/h (1 Bft) W-SW 247 0 min 0,000 mm 0 W/m 0,2 C 1,2 C 17,7 km/h (3 Bft) 99 %
17.01.2022 01:20 1,2 C 1,2 C 1,2 C 93 % 1031,6 hPa 0,0 l/m 1,6 km/h (1 Bft) W-SW 247 0 min 0,000 mm 0 W/m 0,2 C 1,2 C 9,7 km/h (2 Bft) 100 %
17.01.2022 01:30 1,2 C 1,2 C 1,2 C 93 % 1031,7 hPa 0,0 l/m 6,4 km/h (2 Bft) W 270 0 min 0,000 mm 0 W/m 0,2 C 1,2 C 27,4 km/h (4 Bft) 100 %
17.01.2022 01:40 1,1 C 1,1 C 1,2 C 93 % 1031,6 hPa 0,0 l/m 4,8 km/h (1 Bft) W-NW 292 0 min 0,000 mm 0 W/m 0,1 C 1,1 C 17,7 km/h (3 Bft) 100 %
17.01.2022 01:50 1,1 C 1,1 C 1,1 C 93 % 1031,8 hPa 0,0 l/m 1,6 km/h (1 Bft) W 270 0 min 0,000 mm 0 W/m 0,1 C 1,1 C 14,5 km/h (3 Bft) 100 %
17.01.2022 02:00 1,1 C 1,1 C 1,1 C 93 % 1031,7 hPa 0,0 l/m 6,4 km/h (2 Bft) W 270 0 min 0,000 mm 0 W/m 0,1 C 1,1 C 25,7 km/h (4 Bft) 100 %
17.01.2022 02:10 1,0 C 1,0 C 1,1 C 93 % 1031,6 hPa 0,0 l/m 3,2 km/h (1 Bft) W-SW 247 0 min 0,000 mm 0 W/m -0,0 C 1,0 C 17,7 km/h (3 Bft) 99 %
17.01.2022 02:20 1,0 C 1,0 C 1,0 C 93 % 1031,7 hPa 0,0 l/m 4,8 km/h (1 Bft) W-SW 247 0 min 0,000 mm 0 W/m -0,0 C 1,0 C 17,7 km/h (3 Bft) 100 %
17.01.2022 02:30 0,9 C 0,9 C 1,0 C 93 % 1031,6 hPa 0,0 l/m 3,2 km/h (1 Bft) W-NW 292 0 min 0,000 mm 0 W/m -0,1 C 0,9 C 16,1 km/h (3 Bft) 100 %
17.01.2022 02:40 0,9 C 0,9 C 0,9 C 93 % 1031,6 hPa 0,0 l/m 1,6 km/h (1 Bft) W-SW 247 0 min 0,000 mm 0 W/m -0,1 C 0,9 C 12,9 km/h (3 Bft) 100 %
17.01.2022 02:50 0,9 C 0,9 C 0,9 C 93 % 1031,7 hPa 0,0 l/m 4,8 km/h (1 Bft) W 270 0 min 0,000 mm 0 W/m -0,1 C 0,9 C 16,1 km/h (3 Bft) 100 %
17.01.2022 03:00 0,9 C 0,8 C 0,9 C 93 % 1031,6 hPa 0,0 l/m 3,2 km/h (1 Bft) W-SW 247 0 min 0,000 mm 0 W/m -0,1 C 0,9 C 14,5 km/h (3 Bft) 100 %
17.01.2022 03:10 0,8 C 0,8 C 0,9 C 93 % 1031,8 hPa 0,0 l/m 1,6 km/h (1 Bft) W-SW 247 0 min 0,000 mm 0 W/m -0,2 C 0,8 C 9,7 km/h (2 Bft) 89 %
17.01.2022 03:20 0,8 C 0,8 C 0,9 C 93 % 1032,0 hPa 0,0 l/m 3,2 km/h (1 Bft) W 270 0 min 0,000 mm 0 W/m -0,2 C 0,8 C 12,9 km/h (3 Bft) 100 %
17.01.2022 03:30 0,8 C 0,8 C 0,8 C 93 % 1031,9 hPa 0,0 l/m 8,0 km/h (2 Bft) W 270 0 min 0,000 mm 0 W/m -0,2 C -0,8 C 19,3 km/h (3 Bft) 100 %
17.01.2022 03:40 0,8 C 0,8 C 0,8 C 93 % 1031,8 hPa 0,0 l/m 8,0 km/h (2 Bft) W-SW 247 0 min 0,000 mm 0 W/m -0,2 C -0,8 C 20,9 km/h (4 Bft) 100 %
17.01.2022 03:50 0,7 C 0,7 C 0,8 C 93 % 1031,7 hPa 0,0 l/m 9,7 km/h (2 Bft) W 270 0 min 0,000 mm 0 W/m -0,3 C -2,4 C 22,5 km/h (4 Bft) 100 %
17.01.2022 04:00 0,7 C 0,7 C 0,7 C 93 % 1031,6 hPa 0,0 l/m 6,4 km/h (2 Bft) W 270 0 min 0,000 mm 0 W/m -0,3 C 0,7 C 17,7 km/h (3 Bft) 100 %
17.01.2022 04:10 0,7 C 0,7 C 0,7 C 93 % 1031,6 hPa 0,0 l/m 3,2 km/h (1 Bft) W-SW 247 0 min 0,000 mm 0 W/m -0,3 C 0,7 C 11,3 km/h (2 Bft) 100 %
17.01.2022 04:20 0,7 C 0,6 C 0,7 C 93 % 1031,8 hPa 0,0 l/m 6,4 km/h (2 Bft) W 270 0 min 0,000 mm 0 W/m -0,3 C 0,7 C 24,1 km/h (4 Bft) 100 %
17.01.2022 04:30 0,6 C 0,6 C 0,7 C 93 % 1031,8 hPa 0,0 l/m 6,4 km/h (2 Bft) W 270 0 min 0,000 mm 0 W/m -0,4 C 0,6 C 17,7 km/h (3 Bft) 100 %
17.01.2022 04:40 0,6 C 0,6 C 0,6 C 93 % 1031,8 hPa 0,0 l/m 8,0 km/h (2 Bft) W 270 0 min 0,000 mm 0 W/m -0,4 C -1,0 C 24,1 km/h (4 Bft) 91 %
17.01.2022 04:50 0,6 C 0,6 C 0,6 C 93 % 1031,7 hPa 0,0 l/m 4,8 km/h (1 Bft) W 270 0 min 0,000 mm 0 W/m -0,4 C 0,6 C 17,7 km/h (3 Bft) 100 %
17.01.2022 05:00 0,6 C 0,6 C 0,6 C 93 % 1031,5 hPa 0,0 l/m 1,6 km/h (1 Bft) W 270 0 min 0,000 mm 0 W/m -0,4 C 0,6 C 17,7 km/h (3 Bft) 100 %
17.01.2022 05:10 0,5 C 0,5 C 0,6 C 93 % 1031,4 hPa 0,0 l/m 4,8 km/h (1 Bft) W-SW 247 0 min 0,000 mm 0 W/m -0,5 C 0,5 C 24,1 km/h (4 Bft) 100 %
17.01.2022 05:20 0,6 C 0,5 C 0,6 C 93 % 1031,7 hPa 0,0 l/m 8,0 km/h (2 Bft) W-SW 247 0 min 0,000 mm 0 W/m -0,4 C -1,0 C 22,5 km/h (4 Bft) 100 %
17.01.2022 05:30 0,6 C 0,5 C 0,6 C 93 % 1031,6 hPa 0,0 l/m 6,4 km/h (2 Bft) W 270 0 min 0,000 mm 0 W/m -0,4 C 0,6 C 19,3 km/h (3 Bft) 100 %
17.01.2022 05:40 0,6 C 0,5 C 0,6 C 93 % 1031,9 hPa 0,0 l/m 4,8 km/h (1 Bft) W-SW 247 0 min 0,000 mm 0 W/m -0,4 C 0,6 C 16,1 km/h (3 Bft) 100 %
17.01.2022 05:50 0,6 C 0,6 C 0,6 C 93 % 1031,7 hPa 0,0 l/m 6,4 km/h (2 Bft) W-SW 247 0 min 0,000 mm 0 W/m -0,4 C 0,6 C 20,9 km/h (4 Bft) 100 %
17.01.2022 06:00 0,6 C 0,6 C 0,6 C 93 % 1031,6 hPa 0,0 l/m 11,3 km/h (2 Bft) W-SW 247 0 min 0,000 mm 0 W/m -0,4 C -3,8 C 20,9 km/h (4 Bft) 100 %
17.01.2022 06:10 0,6 C 0,5 C 0,6 C 93 % 1031,8 hPa 0,0 l/m 8,0 km/h (2 Bft) W-SW 247 0 min 0,000 mm 0 W/m -0,4 C -1,0 C 24,1 km/h (4 Bft) 100 %
17.01.2022 06:20 0,5 C 0,5 C 0,6 C 93 % 1031,8 hPa 0,0 l/m 9,7 km/h (2 Bft) SW 225 0 min 0,000 mm 0 W/m -0,5 C -2,6 C 20,9 km/h (4 Bft) 100 %
17.01.2022 06:30 0,4 C 0,4 C 0,5 C 93 % 1031,8 hPa 0,0 l/m 8,0 km/h (2 Bft) SW 225 0 min 0,000 mm 0 W/m -0,6 C -1,2 C 20,9 km/h (4 Bft) 100 %
17.01.2022 06:40 0,4 C 0,4 C 0,5 C 93 % 1031,7 hPa 0,0 l/m 9,7 km/h (2 Bft) W-SW 247 0 min 0,000 mm 0 W/m -0,6 C -2,8 C 20,9 km/h (4 Bft) 100 %
17.01.2022 06:50 0,4 C 0,4 C 0,4 C 93 % 1032,2 hPa 0,0 l/m 6,4 km/h (2 Bft) SW 225 0 min 0,000 mm 0 W/m -0,6 C 0,4 C 19,3 km/h (3 Bft) 100 %
17.01.2022 07:00 0,4 C 0,4 C 0,5 C 93 % 1032,2 hPa 0,0 l/m 6,4 km/h (2 Bft) W-SW 247 0 min 0,000 mm 0 W/m -0,6 C 0,4 C 14,5 km/h (3 Bft) 100 %
17.01.2022 07:10 0,5 C 0,4 C 0,5 C 93 % 1032,2 hPa 0,0 l/m 6,4 km/h (2 Bft) W-SW 247 0 min 0,000 mm 0 W/m -0,5 C 0,5 C 14,5 km/h (3 Bft) 100 %
17.01.2022 07:20 0,5 C 0,5 C 0,5 C 93 % 1032,2 hPa 0,0 l/m 3,2 km/h (1 Bft) W-SW 247 0 min 0,000 mm 0 W/m -0,5 C 0,5 C 11,3 km/h (2 Bft) 100 %
17.01.2022 07:30 0,5 C 0,5 C 0,5 C 93 % 1032,8 hPa 0,0 l/m 1,6 km/h (1 Bft) W-SW 247 0 min 0,000 mm 0 W/m -0,5 C 0,5 C 6,4 km/h (2 Bft) 100 %
17.01.2022 07:40 0,6 C 0,5 C 0,6 C 93 % 1032,5 hPa 0,0 l/m 4,8 km/h (1 Bft) W-SW 247 0 min 0,000 mm 0 W/m -0,4 C 0,6 C 11,3 km/h (2 Bft) 89 %
17.01.2022 07:50 0,5 C 0,5 C 0,6 C 93 % 1032,1 hPa 0,0 l/m 6,4 km/h (2 Bft) W-SW 247 0 min 0,000 mm 0 W/m -0,5 C 0,5 C 19,3 km/h (3 Bft) 100 %
17.01.2022 08:00 0,5 C 0,5 C 0,5 C 93 % 1032,0 hPa 0,0 l/m 6,4 km/h (2 Bft) SW 225 0 min 0,000 mm 0 W/m -0,5 C 0,5 C 16,1 km/h (3 Bft) 100 %
17.01.2022 08:10 0,6 C 0,5 C 0,6 C 93 % 1032,4 hPa 0,0 l/m 8,0 km/h (2 Bft) SW 225 0 min 0,000 mm 0 W/m -0,4 C -1,0 C 19,3 km/h (3 Bft) 100 %
17.01.2022 08:20 0,6 C 0,5 C 0,6 C 93 % 1033,1 hPa 0,0 l/m 4,8 km/h (1 Bft) W-SW 247 0 min 0,000 mm 0 W/m -0,4 C 0,6 C 12,9 km/h (3 Bft) 100 %
17.01.2022 08:30 0,6 C 0,6 C 0,6 C 93 % 1033,5 hPa 0,0 l/m 4,8 km/h (1 Bft) SW 225 0 min 0,000 mm 0 W/m -0,4 C 0,6 C 11,3 km/h (2 Bft) 100 %
17.01.2022 08:40 0,7 C 0,6 C 0,7 C 93 % 1033,1 hPa 0,0 l/m 4,8 km/h (1 Bft) SW 225 0 min 0,000 mm 0 W/m -0,3 C 0,7 C 11,3 km/h (2 Bft) 100 %
17.01.2022 08:50 0,7 C 0,7 C 0,7 C 93 % 1032,8 hPa 0,0 l/m 6,4 km/h (2 Bft) W-SW 247 0 min 0,000 mm 7 W/m -0,3 C 0,7 C 11,3 km/h (2 Bft) 100 %
17.01.2022 09:00 0,7 C 0,7 C 0,7 C 93 % 1032,9 hPa 0,0 l/m 8,0 km/h (2 Bft) SW 225 0 min 0,000 mm 14 W/m -0,3 C -0,9 C 20,9 km/h (4 Bft) 100 %
17.01.2022 09:10 0,7 C 0,7 C 0,7 C 93 % 1033,1 hPa 0,0 l/m 8,0 km/h (2 Bft) SW 225 0 min 0,000 mm 16 W/m -0,3 C -0,9 C 20,9 km/h (4 Bft) 100 %
17.01.2022 09:20 0,8 C 0,7 C 0,8 C 93 % 1033,2 hPa 0,0 l/m 6,4 km/h (2 Bft) W-SW 247 0 min 0,000 mm 16 W/m -0,2 C 0,8 C 19,3 km/h (3 Bft) 99 %
17.01.2022 09:30 0,8 C 0,8 C 0,8 C 93 % 1033,5 hPa 0,0 l/m 8,0 km/h (2 Bft) SW 225 0 min 0,000 mm 16 W/m -0,2 C -0,8 C 20,9 km/h (4 Bft) 100 %
17.01.2022 09:40 0,9 C 0,8 C 0,9 C 93 % 1033,1 hPa 0,0 l/m 8,0 km/h (2 Bft) W-SW 247 0 min 0,000 mm 19 W/m -0,1 C -0,7 C 19,3 km/h (3 Bft) 100 %
17.01.2022 09:50 0,9 C 0,9 C 0,9 C 93 % 1032,8 hPa 0,0 l/m 11,3 km/h (2 Bft) SW 225 0 min 0,000 mm 32 W/m -0,1 C -3,5 C 20,9 km/h (4 Bft) 100 %
17.01.2022 10:00 0,9 C 0,9 C 0,9 C 93 % 1032,9 hPa 0,0 l/m 9,7 km/h (2 Bft) W-SW 247 0 min 0,000 mm 26 W/m -0,1 C -2,2 C 17,7 km/h (3 Bft) 100 %
17.01.2022 10:10 1,0 C 0,9 C 1,0 C 93 % 1033,3 hPa 0,0 l/m 8,0 km/h (2 Bft) W-SW 247 0 min 0,000 mm 32 W/m -0,0 C -0,6 C 17,7 km/h (3 Bft) 100 %
17.01.2022 10:20 1,1 C 1,0 C 1,1 C 93 % 1033,3 hPa 0,0 l/m 3,2 km/h (1 Bft) W-SW 247 0 min 0,000 mm 46 W/m 0,1 C 1,1 C 8,0 km/h (2 Bft) 100 %
17.01.2022 10:30 1,2 C 1,1 C 1,2 C 93 % 1033,4 hPa 0,0 l/m 6,4 km/h (2 Bft) W 270 0 min 0,000 mm 32 W/m 0,2 C 1,2 C 20,9 km/h (4 Bft) 100 %
17.01.2022 10:40 1,2 C 1,2 C 1,2 C 93 % 1033,8 hPa 0,0 l/m 8,0 km/h (2 Bft) W 270 0 min 0,000 mm 42 W/m 0,2 C -0,4 C 17,7 km/h (3 Bft) 90 %
17.01.2022 10:50 1,3 C 1,2 C 1,3 C 93 % 1033,8 hPa 0,0 l/m 8,0 km/h (2 Bft) W 270 0 min 0,000 mm 60 W/m 0,3 C -0,3 C 20,9 km/h (4 Bft) 100 %
17.01.2022 11:00 1,4 C 1,3 C 1,4 C 93 % 1033,9 hPa 0,0 l/m 8,0 km/h (2 Bft) W-SW 247 0 min 0,025 mm 60 W/m 0,4 C -0,2 C 16,1 km/h (3 Bft) 100 %
17.01.2022 11:10 1,4 C 1,4 C 1,4 C 93 % 1034,2 hPa 0,0 l/m 8,0 km/h (2 Bft) W-SW 247 0 min 0,000 mm 56 W/m 0,4 C -0,2 C 22,5 km/h (4 Bft) 100 %
17.01.2022 11:20 1,4 C 1,4 C 1,4 C 93 % 1033,7 hPa 0,0 l/m 9,7 km/h (2 Bft) W-SW 247 0 min 0,000 mm 86 W/m 0,4 C -1,7 C 22,5 km/h (4 Bft) 100 %
17.01.2022 11:30 1,4 C 1,4 C 1,4 C 93 % 1034,1 hPa 0,0 l/m 11,3 km/h (2 Bft) W-SW 247 0 min 0,000 mm 76 W/m 0,4 C -2,9 C 27,4 km/h (4 Bft) 100 %
17.01.2022 11:40 1,5 C 1,4 C 1,5 C 93 % 1034,0 hPa 0,0 l/m 4,8 km/h (1 Bft) W 270 0 min 0,000 mm 63 W/m 0,5 C 1,5 C 16,1 km/h (3 Bft) 100 %
17.01.2022 11:50 1,6 C 1,5 C 1,6 C 93 % 1034,1 hPa 0,0 l/m 4,8 km/h (1 Bft) W 270 0 min 0,000 mm 54 W/m 0,6 C 1,6 C 24,1 km/h (4 Bft) 100 %
17.01.2022 12:00 1,6 C 1,6 C 1,6 C 93 % 1034,2 hPa 0,0 l/m 1,6 km/h (1 Bft) W 270 0 min 0,025 mm 47 W/m 0,6 C 1,6 C 11,3 km/h (2 Bft) 99 %
17.01.2022 12:10 1,7 C 1,6 C 1,7 C 93 % 1034,2 hPa 0,0 l/m 7,3 km/h (2 Bft) W 270 0 min 0,001 mm 53 W/m 0,7 C 0,8 C 14,5 km/h (3 Bft) 100 %
17.01.2022 12:20 1,8 C 1,7 C 1,8 C 93 % 1033,9 hPa 0,0 l/m 5,8 km/h (2 Bft) W-SW 240 0 min 0,000 mm 91 W/m 0,8 C 1,8 C 17,7 km/h (3 Bft) 100 %
17.01.2022 12:30 1,8 C 1,7 C 1,8 C 93 % 1034,1 hPa 0,0 l/m 7,5 km/h (2 Bft) W-SW 258 0 min 0,000 mm 105 W/m 0,8 C 0,7 C 19,3 km/h (3 Bft) 100 %
17.01.2022 12:40 1,9 C 1,8 C 1,9 C 93 % 1033,7 hPa 0,0 l/m 7,9 km/h (2 Bft) W 271 0 min 0,000 mm 98 W/m 0,9 C 0,4 C 24,1 km/h (4 Bft) 100 %
17.01.2022 12:50 2,1 C 1,9 C 2,1 C 93 % 1033,7 hPa 0,0 l/m 8,3 km/h (2 Bft) W-SW 248 0 min 0,000 mm 111 W/m 1,1 C 0,3 C 22,5 km/h (4 Bft) 100 %
17.01.2022 13:00 2,1 C 2,1 C 2,1 C 93 % 1033,4 hPa 0,0 l/m 8,0 km/h (2 Bft) W-SW 253 0 min 0,000 mm 98 W/m 1,1 C 0,6 C 22,5 km/h (4 Bft) 100 %
17.01.2022 13:10 2,2 C 2,1 C 2,2 C 93 % 1033,6 hPa 0,0 l/m 7,7 km/h (2 Bft) W 273 0 min 0,025 mm 120 W/m 1,2 C 0,9 C 19,3 km/h (3 Bft) 100 %
17.01.2022 13:20 2,2 C 2,2 C 2,2 C 92 % 1033,6 hPa 0,0 l/m 9,7 km/h (2 Bft) W 261 0 min 0,000 mm 98 W/m 1,0 C -0,8 C 25,7 km/h (4 Bft) 100 %
17.01.2022 13:30 2,4 C 2,2 C 2,4 C 92 % 1033,4 hPa 0,0 l/m 5,3 km/h (1 Bft) W-SW 254 0 min 0,000 mm 88 W/m 1,2 C 2,4 C 17,7 km/h (3 Bft) 91 %
17.01.2022 13:40 2,5 C 2,4 C 2,5 C 92 % 1033,3 hPa 0,0 l/m 4,6 km/h (1 Bft) W 263 0 min 0,000 mm 97 W/m 1,3 C 2,5 C 16,1 km/h (3 Bft) 100 %
17.01.2022 13:50 2,6 C 2,5 C 2,6 C 92 % 1033,3 hPa 0,0 l/m 6,8 km/h (2 Bft) SW 219 0 min 0,000 mm 86 W/m 1,4 C 2,2 C 19,3 km/h (3 Bft) 100 %
17.01.2022 14:00 2,7 C 2,6 C 2,7 C 92 % 1033,1 hPa 0,0 l/m 9,1 km/h (2 Bft) W-SW 250 0 min 0,000 mm 100 W/m 1,5 C 0,2 C 20,9 km/h (4 Bft) 100 %
17.01.2022 14:10 2,7 C 2,7 C 2,7 C 92 % 1033,0 hPa 0,0 l/m 8,8 km/h (2 Bft) W-SW 245 10 min 0,051 mm 211 W/m 1,5 C 0,5 C 32,2 km/h (5 Bft) 100 %
17.01.2022 14:20 2,9 C 2,7 C 2,9 C 91 % 1032,6 hPa 0,0 l/m 6,1 km/h (2 Bft) SW 226 0 min 0,000 mm 142 W/m 1,6 C 2,9 C 22,5 km/h (4 Bft) 91 %
17.01.2022 14:30 2,9 C 2,9 C 2,9 C 91 % 1032,8 hPa 0,0 l/m 6,0 km/h (2 Bft) W-SW 237 0 min 0,000 mm 70 W/m 1,6 C 2,9 C 16,1 km/h (3 Bft) 100 %
17.01.2022 14:40 2,9 C 2,9 C 3,0 C 91 % 1032,9 hPa 0,0 l/m 6,8 km/h (2 Bft) W-SW 249 0 min 0,000 mm 72 W/m 1,6 C 2,5 C 20,9 km/h (4 Bft) 100 %
17.01.2022 14:50 2,9 C 2,9 C 2,9 C 91 % 1033,0 hPa 0,0 l/m 7,6 km/h (2 Bft) W 277 0 min 0,000 mm 62 W/m 1,6 C 1,8 C 22,5 km/h (4 Bft) 100 %
17.01.2022 15:00 2,9 C 2,9 C 2,9 C 91 % 1032,7 hPa 0,0 l/m 12,2 km/h (2 Bft) W-SW 257 0 min 0,051 mm 49 W/m 1,6 C -1,8 C 22,5 km/h (4 Bft) 100 %
17.01.2022 15:10 2,8 C 2,8 C 2,9 C 91 % 1032,9 hPa 0,0 l/m 8,5 km/h (2 Bft) W 272 0 min 0,000 mm 33 W/m 1,5 C 0,9 C 20,9 km/h (4 Bft) 100 %
17.01.2022 15:20 2,8 C 2,8 C 2,9 C 91 % 1032,6 hPa 0,0 l/m 11,5 km/h (2 Bft) W 277 0 min 0,000 mm 44 W/m 1,5 C -1,4 C 29,0 km/h (5 Bft) 91 %
17.01.2022 15:30 2,8 C 2,8 C 2,8 C 91 % 1032,5 hPa 0,0 l/m 10,6 km/h (2 Bft) W-SW 245 0 min 0,000 mm 58 W/m 1,5 C -0,8 C 22,5 km/h (4 Bft) 100 %
17.01.2022 15:40 2,9 C 2,8 C 2,9 C 91 % 1032,8 hPa 0,0 l/m 11,5 km/h (2 Bft) W-SW 254 0 min 0,000 mm 44 W/m 1,6 C -1,3 C 25,7 km/h (4 Bft) 100 %
17.01.2022 15:50 2,9 C 2,9 C 2,9 C 91 % 1033,0 hPa 0,0 l/m 6,2 km/h (2 Bft) W 269 0 min 0,000 mm 44 W/m 1,6 C 2,9 C 17,7 km/h (3 Bft) 100 %
17.01.2022 16:00 3,0 C 2,9 C 3,0 C 91 % 1033,1 hPa 0,0 l/m 7,3 km/h (2 Bft) W 263 0 min 0,025 mm 28 W/m 1,7 C 2,1 C 20,9 km/h (4 Bft) 100 %
17.01.2022 16:10 2,9 C 2,9 C 3,0 C 91 % 1033,2 hPa 0,0 l/m 6,7 km/h (2 Bft) W-SW 256 0 min 0,000 mm 9 W/m 1,6 C 2,6 C 17,7 km/h (3 Bft) 100 %
17.01.2022 16:20 2,9 C 2,9 C 2,9 C 91 % 1033,3 hPa 0,0 l/m 6,5 km/h (2 Bft) W-SW 254 0 min 0,000 mm 5 W/m 1,6 C 2,8 C 17,7 km/h (3 Bft) 100 %
17.01.2022 16:30 2,8 C 2,8 C 2,9 C 91 % 1033,4 hPa 0,0 l/m 8,4 km/h (2 Bft) W-SW 257 0 min 0,000 mm 0 W/m 1,5 C 0,9 C 20,9 km/h (4 Bft) 100 %
17.01.2022 16:40 2,8 C 2,8 C 2,8 C 91 % 1033,5 hPa 0,0 l/m 7,2 km/h (2 Bft) W-SW 250 0 min 0,000 mm 0 W/m 1,5 C 2,0 C 22,5 km/h (4 Bft) 100 %
17.01.2022 16:50 2,7 C 2,7 C 2,8 C 91 % 1033,5 hPa 0,0 l/m 8,6 km/h (2 Bft) W 261 0 min 0,000 mm 0 W/m 1,4 C 0,7 C 27,4 km/h (4 Bft) 100 %
17.01.2022 17:00 2,7 C 2,7 C 2,7 C 92 % 1033,7 hPa 0,0 l/m 9,8 km/h (2 Bft) W 267 0 min 0,000 mm 0 W/m 1,5 C -0,3 C 25,7 km/h (4 Bft) 91 %
17.01.2022 17:10 2,7 C 2,7 C 2,7 C 92 % 1033,8 hPa 0,0 l/m 9,3 km/h (2 Bft) W 263 0 min 0,000 mm 0 W/m 1,5 C 0,1 C 19,3 km/h (3 Bft) 100 %
17.01.2022 17:20 2,7 C 2,6 C 2,7 C 92 % 1033,9 hPa 0,0 l/m 9,1 km/h (2 Bft) W-SW 257 0 min 0,000 mm 0 W/m 1,5 C 0,2 C 22,5 km/h (4 Bft) 100 %
17.01.2022 17:30 2,6 C 2,6 C 2,7 C 92 % 1033,9 hPa 0,0 l/m 7,7 km/h (2 Bft) W 272 0 min 0,000 mm 0 W/m 1,4 C 1,4 C 22,5 km/h (4 Bft) 100 %
17.01.2022 17:40 2,6 C 2,6 C 2,6 C 93 % 1033,8 hPa 0,0 l/m 10,1 km/h (2 Bft) W-SW 258 0 min 0,000 mm 0 W/m 1,6 C -0,7 C 20,9 km/h (4 Bft) 100 %
17.01.2022 17:50 2,5 C 2,5 C 2,6 C 93 % 1033,9 hPa 0,0 l/m 10,0 km/h (2 Bft) SW 223 0 min 0,000 mm 0 W/m 1,5 C -0,7 C 22,5 km/h (4 Bft) 92 %
17.01.2022 18:00 2,4 C 2,4 C 2,5 C 93 % 1034,0 hPa 0,0 l/m 8,6 km/h (2 Bft) W 277 0 min 0,000 mm 0 W/m 1,4 C 0,3 C 22,5 km/h (4 Bft) 99 %
17.01.2022 18:10 2,4 C 2,4 C 2,5 C 93 % 1033,7 hPa 0,0 l/m 8,9 km/h (2 Bft) W-SW 250 0 min 0,000 mm 0 W/m 1,4 C 0,1 C 20,9 km/h (4 Bft) 100 %
17.01.2022 18:20 2,4 C 2,4 C 2,4 C 93 % 1034,1 hPa 0,0 l/m 7,6 km/h (2 Bft) W-SW 244 0 min 0,000 mm 0 W/m 1,4 C 1,2 C 22,5 km/h (4 Bft) 100 %
17.01.2022 18:30 2,4 C 2,4 C 2,4 C 93 % 1033,9 hPa 0,0 l/m 12,2 km/h (2 Bft) W 271 0 min 0,000 mm 0 W/m 1,4 C -2,4 C 27,4 km/h (4 Bft) 100 %
17.01.2022 18:40 2,4 C 2,4 C 2,4 C 93 % 1034,4 hPa 0,0 l/m 9,8 km/h (2 Bft) SW 236 0 min 0,000 mm 0 W/m 1,4 C -0,6 C 22,5 km/h (4 Bft) 100 %
17.01.2022 18:50 2,4 C 2,4 C 2,5 C 93 % 1034,4 hPa 0,2 l/m 9,8 km/h (2 Bft) W 277 0 min 0,000 mm 0 W/m 1,4 C -0,6 C 20,9 km/h (4 Bft) 100 %
17.01.2022 19:00 2,5 C 2,4 C 2,5 C 93 % 1034,5 hPa 0,0 l/m 11,6 km/h (2 Bft) W-NW 287 0 min 0,000 mm 0 W/m 1,5 C -1,9 C 24,1 km/h (4 Bft) 100 %
17.01.2022 19:10 2,5 C 2,5 C 2,5 C 93 % 1034,5 hPa 0,0 l/m 9,8 km/h (2 Bft) W-SW 254 0 min 0,000 mm 0 W/m 1,5 C -0,5 C 22,5 km/h (4 Bft) 100 %
17.01.2022 19:20 2,6 C 2,5 C 2,6 C 93 % 1034,4 hPa 0,0 l/m 8,2 km/h (2 Bft) W-SW 257 0 min 0,000 mm 0 W/m 1,6 C 0,9 C 20,9 km/h (4 Bft) 100 %
17.01.2022 19:30 2,6 C 2,6 C 2,6 C 92 % 1034,4 hPa 0,0 l/m 7,4 km/h (2 Bft) W-SW 257 0 min 0,000 mm 0 W/m 1,4 C 1,6 C 17,7 km/h (3 Bft) 91 %
17.01.2022 19:40 2,6 C 2,6 C 2,6 C 92 % 1034,9 hPa 0,0 l/m 9,0 km/h (2 Bft) W-SW 255 0 min 0,000 mm 0 W/m 1,4 C 0,2 C 19,3 km/h (3 Bft) 100 %
17.01.2022 19:50 2,6 C 2,6 C 2,6 C 92 % 1034,8 hPa 0,0 l/m 9,9 km/h (2 Bft) W 262 0 min 0,000 mm 0 W/m 1,4 C -0,5 C 30,6 km/h (5 Bft) 99 %
17.01.2022 20:00 2,6 C 2,6 C 2,6 C 92 % 1034,9 hPa 0,0 l/m 4,9 km/h (1 Bft) W-SW 250 0 min 0,000 mm 0 W/m 1,4 C 2,6 C 16,1 km/h (3 Bft) 100 %
17.01.2022 20:10 2,6 C 2,6 C 2,6 C 92 % 1034,9 hPa 0,2 l/m 6,4 km/h (2 Bft) W 269 0 min 0,000 mm 0 W/m 1,4 C 2,6 C 17,7 km/h (3 Bft) 99 %
17.01.2022 20:20 2,6 C 2,6 C 2,6 C 92 % 1034,9 hPa 0,2 l/m 7,2 km/h (2 Bft) W 268 0 min 0,000 mm 0 W/m 1,4 C 1,8 C 17,7 km/h (3 Bft) 100 %
17.01.2022 20:30 2,6 C 2,6 C 2,6 C 92 % 1034,9 hPa 0,0 l/m 7,0 km/h (2 Bft) W-SW 258 0 min 0,000 mm 0 W/m 1,4 C 2,0 C 17,7 km/h (3 Bft) 100 %
17.01.2022 20:40 2,7 C 2,6 C 2,7 C 92 % 1035,1 hPa 0,0 l/m 7,8 km/h (2 Bft) W 279 0 min 0,000 mm 0 W/m 1,5 C 1,4 C 17,7 km/h (3 Bft) 100 %
17.01.2022 20:50 2,7 C 2,7 C 2,7 C 92 % 1035,2 hPa 0,0 l/m 5,3 km/h (1 Bft) W-SW 251 0 min 0,000 mm 0 W/m 1,5 C 2,7 C 20,9 km/h (4 Bft) 100 %
17.01.2022 21:00 2,7 C 2,7 C 2,7 C 92 % 1035,4 hPa 0,2 l/m 4,7 km/h (1 Bft) W 270 0 min 0,000 mm 0 W/m 1,5 C 2,7 C 11,3 km/h (2 Bft) 100 %
17.01.2022 21:10 2,7 C 2,7 C 2,7 C 92 % 1035,4 hPa 0,0 l/m 4,8 km/h (1 Bft) W 270 0 min 0,000 mm 0 W/m 1,5 C 2,7 C 11,3 km/h (2 Bft) 98 %
17.01.2022 21:20 2,7 C 2,7 C 2,7 C 92 % 1035,5 hPa 0,0 l/m 4,8 km/h (1 Bft) W 270 0 min 0,000 mm 0 W/m 1,5 C 2,7 C 14,5 km/h (3 Bft) 98 %
17.01.2022 21:30 2,7 C 2,7 C 2,7 C 92 % 1035,5 hPa 0,0 l/m 6,4 km/h (2 Bft) W 270 0 min 0,000 mm 0 W/m 1,5 C 2,7 C 14,5 km/h (3 Bft) 97 %
17.01.2022 21:40 2,7 C 2,7 C 2,7 C 92 % 1035,7 hPa 0,0 l/m 6,4 km/h (2 Bft) W 270 0 min 0,000 mm 0 W/m 1,5 C 2,7 C 19,3 km/h (3 Bft) 97 %
17.01.2022 21:50 2,7 C 2,7 C 2,7 C 92 % 1035,6 hPa 0,0 l/m 6,4 km/h (2 Bft) W-NW 292 0 min 0,000 mm 0 W/m 1,5 C 2,7 C 19,3 km/h (3 Bft) 98 %
17.01.2022 22:00 2,7 C 2,7 C 2,7 C 92 % 1035,7 hPa 0,0 l/m 4,8 km/h (1 Bft) W-NW 292 0 min 0,000 mm 0 W/m 1,5 C 2,7 C 19,3 km/h (3 Bft) 97 %
17.01.2022 22:10 2,7 C 2,7 C 2,8 C 92 % 1035,5 hPa 0,0 l/m 3,2 km/h (1 Bft) W-NW 292 0 min 0,000 mm 0 W/m 1,5 C 2,7 C 14,5 km/h (3 Bft) 97 %
17.01.2022 22:20 2,8 C 2,7 C 2,8 C 92 % 1035,7 hPa 0,0 l/m 4,8 km/h (1 Bft) W 270 0 min 0,000 mm 0 W/m 1,6 C 2,8 C 17,7 km/h (3 Bft) 97 %
17.01.2022 22:30 2,8 C 2,8 C 2,8 C 92 % 1035,5 hPa 0,0 l/m 3,2 km/h (1 Bft) W 270 0 min 0,000 mm 0 W/m 1,6 C 2,8 C 12,9 km/h (3 Bft) 98 %
17.01.2022 22:40 2,8 C 2,8 C 2,8 C 92 % 1035,5 hPa 0,0 l/m 4,8 km/h (1 Bft) W 270 0 min 0,000 mm 0 W/m 1,6 C 2,8 C 12,9 km/h (3 Bft) 98 %
17.01.2022 22:50 2,8 C 2,8 C 2,8 C 92 % 1035,4 hPa 0,0 l/m 4,8 km/h (1 Bft) W-NW 292 0 min 0,000 mm 0 W/m 1,6 C 2,8 C 11,3 km/h (2 Bft) 98 %
17.01.2022 23:00 2,8 C 2,8 C 2,8 C 92 % 1035,5 hPa 0,0 l/m 4,8 km/h (1 Bft) W 270 0 min 0,000 mm 0 W/m 1,6 C 2,8 C 14,5 km/h (3 Bft) 97 %
17.01.2022 23:10 2,8 C 2,8 C 2,8 C 92 % 1035,5 hPa 0,0 l/m 4,8 km/h (1 Bft) W 270 0 min 0,000 mm 0 W/m 1,6 C 2,8 C 11,3 km/h (2 Bft) 97 %
17.01.2022 23:20 2,8 C 2,7 C 2,8 C 92 % 1035,5 hPa 0,2 l/m 4,8 km/h (1 Bft) NW 315 0 min 0,000 mm 0 W/m 1,6 C 2,8 C 16,1 km/h (3 Bft) 98 %
17.01.2022 23:30 2,8 C 2,7 C 2,8 C 92 % 1035,5 hPa 0,0 l/m 4,8 km/h (1 Bft) W 270 0 min 0,000 mm 0 W/m 1,6 C 2,8 C 14,5 km/h (3 Bft) 97 %
17.01.2022 23:40 2,8 C 2,7 C 2,8 C 92 % 1035,4 hPa 0,0 l/m 6,4 km/h (2 Bft) W-NW 292 0 min 0,000 mm 0 W/m 1,6 C 2,8 C 16,1 km/h (3 Bft) 98 %
17.01.2022 23:50 2,8 C 2,7 C 2,8 C 92 % 1035,5 hPa 0,0 l/m 4,8 km/h (1 Bft) W-NW 292 0 min 0,000 mm 0 W/m 1,6 C 2,8 C 14,5 km/h (3 Bft) 98 %
_ Min-Zeit 06:30 06:30 06:50 14:20 00:00 - 01:20 - - - - - 06:30 00:20 07:30 00:10
Minimum _ 0,4 C 0,4 C 0,4 C 91 % 1031,2 hPa - 1,6 km/h (1 Bft) - - - - - -0,6 C -4,2 C 6,4 km/h (2 Bft) 80 %
_ Max-Zeit 14:40 14:30 14:40 00:00 21:40 18:50 00:20 - - 14:10 14:10 14:10 16:00 14:20 14:10 00:20
Maximum _ 3,0 C 2,9 C 3,0 C 93 % 1035,7 hPa 0,2 l/m 12,9 km/h
W (3 Bft)
- - 10 min 0,051 mm 211 W/m 1,7 C 2,9 C 32,2 km/h
W (5 Bft)
100 %
Durchschnitt _ 1,7 C 1,7 C 1,7 C 93 % 1033,2 hPa #1,0 l/m 6,9 km/h (2 Bft) W-SW - #10 min. #0,203 mm 61 W/m 0,7 C 0,6 C 19,1 km/h (3 Bft) 99 %
PRIVATE WETTERSTATION BILLIGHEIM-ALLFELD - www.neckar-odenwald-wetter.de - Holger Sonntag